Location: Peebles
(55.6412°N, 3.1714°W)
Time: 04:57:23
(UTC+00:00)

Meteor 2-12 Rocket - Visible Passes

Search period start: 28 January 2022 00:00
Search period end: 07 February 2022 00:00
Orbit: 935 x 958 km, 82.5° (Epoch: 27 January)

Date Brightness Start Highest point End Pass type
(mag) Time Alt. Az. Time Alt. Az. Time Alt. Az.
28 Jan 6.7 02:41:01 19° ENE 02:41:01 19° ENE 02:43:46 10° NNE visible
28 Jan 4.9 04:25:04 52° N 04:25:04 52° N 04:29:33 10° NNE visible
28 Jan 5.5 06:09:08 23° NW 06:09:08 23° NW 06:13:55 10° N visible
29 Jan 6.4 02:57:52 24° NE 02:57:52 24° NE 03:00:53 10° NNE visible
29 Jan 5.0 04:41:55 46° NNW 04:41:55 46° NNW 04:46:15 10° N visible
29 Jan 5.8 06:25:59 18° NW 06:26:18 18° NW 06:30:16 10° N visible
30 Jan 6.1 03:14:40 29° NE 03:14:40 29° NE 03:17:52 10° NNE visible
30 Jan 5.1 04:58:43 38° NNW 04:58:43 38° NNW 05:02:53 10° N visible
30 Jan 6.0 06:42:47 13° NW 06:43:32 13° NW 06:46:23 10° NNW visible
31 Jan 7.2 01:47:23 11° NE 01:47:23 11° NE 01:47:46 10° NE visible
31 Jan 5.8 03:31:26 32° NNE 03:31:26 32° NNE 03:34:42 10° NNE visible
31 Jan 5.4 05:15:29 30° NW 05:15:29 30° NW 05:19:27 10° N visible
01 Feb 7.0 02:04:07 14° NE 02:04:07 14° NE 02:05:28 10° NE visible
01 Feb 5.7 03:48:11 35° NNE 03:48:11 35° NNE 03:51:30 10° NNE visible
01 Feb 5.6 05:32:14 24° NW 05:32:14 24° NW 05:35:59 10° N visible
02 Feb 6.8 02:20:50 18° NE 02:20:50 18° NE 02:22:42 10° NNE visible
02 Feb 5.6 04:04:53 34° N 04:04:53 34° N 04:08:12 10° N visible
02 Feb 5.8 05:48:56 19° NW 05:48:56 19° NW 05:52:23 10° N visible
03 Feb 6.5 02:37:32 21° NE 02:37:32 21° NE 02:39:43 10° NNE visible
03 Feb 5.6 04:21:35 32° N 04:21:35 32° N 04:24:53 10° N visible
03 Feb 6.1 06:05:38 15° NW 06:05:38 15° NW 06:08:37 10° NNW visible
04 Feb 6.3 02:54:12 24° NNE 02:54:12 24° NNE 02:56:37 10° NNE visible
04 Feb 5.7 04:38:15 28° NNW 04:38:15 28° NNW 04:41:29 10° N visible
04 Feb 6.3 06:22:18 11° NW 06:22:35 11° NW 06:24:22 10° NNW visible
05 Feb 7.2 01:26:49 11° NE 01:26:49 11° NE 01:27:06 10° NE visible
05 Feb 6.1 03:10:51 27° NNE 03:10:51 27° NNE 03:13:25 10° NNE visible
05 Feb 5.8 04:54:54 24° NNW 04:54:54 24° NNW 04:58:00 10° N visible
06 Feb 7.0 01:43:27 14° NE 01:43:27 14° NE 01:44:28 10° NNE visible
06 Feb 6.0 03:27:30 28° N 03:27:30 28° N 03:30:10 10° NNE visible
06 Feb 5.9 05:11:32 20° NNW 05:11:32 20° NNW 05:14:28 10° N visible
